www.pogodaiklimat.ru

Погода и климат >> Архив погоды >> Швейцария >> Бецнау


ПОГОДА на Бецнау

  • Прогноз погоды на Бецнау
  • Монитор погоды на Бецнау

АРХИВ ПОГОДЫ на Бецнау

Время (UTC), дата Ветер
(напр.,м/с)
 
Видим.   Явления Облачность Т
(С)
Тd
(С)
f
(%)
Тe
(С)
Тes
(С)
Комфортность P
(гПа)
Po
(гПа)
Тmin
(С)
Tmax
(С)
R
(мм)
R24
(мм)
S
(см)
10 9.07 В 2
{4}
н/о н/о +20.7 +9.6 49 +23 +23 комфорт 1016.4 978.8
11 9.07 В 1
{5}
н/о н/о +21.8 +9.8 46 +23 +23 комфорт 1016.3 978.9
12 9.07 С 1
{5}
н/о н/о +22.7 +9.1 42 +24 +24 комфорт 1015.9 978.6
13 9.07 В 2
{4}
н/о н/о +22.6 +9.3 43 +24 +24 комфорт 1015.4 978.1
14 9.07 В 2
{4}
н/о н/о +24.2 +9.5 39 +25 +25 комфорт 1014.6 977.5
15 9.07 В 2
{5}
н/о н/о +23.5 +8.9 39 +24 +24 комфорт 1014.7 977.5
16 9.07 СВ 1
{5}
н/о н/о +23.7 +9.3 40 +25 +25 комфорт 1014.1 977.0
17 9.07 СВ 1
{5}
н/о н/о +22.8 +9.9 44 +25 +25 комфорт 1014.2 977.0
18 9.07 СВ 2
{5}
н/о н/о +22.1 +8.7 42 +23 +23 комфорт 1014.7 977.4 +24.7
19 9.07 СВ 3
{6}
н/о н/о +21.3 +8.1 43 +22 +22 комфорт 1015.6 978.1
20 9.07 СВ 2
{7}
н/о н/о +19.9 +7.7 45 +21 +21 комфорт 1016.6 978.9
21 9.07 С 1
{7}
н/о н/о +18.1 +7.3 49 +19 +19 1017.2 979.2
22 9.07 С 2
{4}
н/о н/о +16.7 +7.2 53 +17 +17 1018.0 979.8
23 9.07 С 1
{3}
н/о н/о +15.7 +7.3 57 +16 +16 1018.5 980.2
00 10.07 СВ 2
{7}
н/о н/о +15.0 +6.6 57 +15 +15 1018.9 980.5
01 10.07 С 1
{4}
н/о н/о +14.2 +6.5 60 +15 +15 1019.0 980.4
02 10.07 СВ 1
{3}
н/о н/о +13.4 +6.4 63 +15 +15 1019.1 980.4
03 10.07 СВ 1
{4}
н/о н/о +13.0 +6.2 63 +13 +13 1019.3 980.6
04 10.07 С 1
{3}
н/о н/о +12.3 +6.8 69 +13 +13 1019.3 980.5
05 10.07 СЗ 1
{2}
н/о н/о +12.6 +6.9 68 +13 +13 1019.5 980.7
06 10.07 СВ 1 н/о н/о +14.0 +6.5 61 +14 +14 1019.3 980.7 +12.2
07 10.07 В 2
{4}
н/о н/о +15.8 +6.4 54 +16 +16 1019.2 980.9
08 10.07 В 2
{6}
н/о н/о +17.4 +6.1 47 +18 +18 1018.8 980.7
09 10.07 СВ 3
{6}
н/о н/о +18.7 +6.8 46 +19 +19 1018.7 980.8
10 10.07 СВ 2
{6}
н/о н/о +19.8 +7.3 44 +21 +21 комфорт 1018.3 980.5
11 10.07 СВ 2
{5}
н/о н/о +21.3 +7.0 40 +22 +22 комфорт 1017.7 980.1
12 10.07 В 2
{6}
н/о н/о +22.1 +5.4 34 +23 +23 комфорт 1017.2 979.8
13 10.07 С 1
{4}
н/о н/о +22.9 +5.1 31 +23 +23 комфорт 1016.7 979.4
14 10.07 В 2
{5}
н/о н/о +23.9 +4.6 29 +24 +24 комфорт 1016.3 979.1
15 10.07 В 1
{5}
н/о н/о +24.6 +5.9 30 +24 +24 комфорт 1015.9 978.8
16 10.07 ЮЗ 1
{4}
н/о н/о +24.6 +5.9 30 +24 +24 комфорт 1015.9 978.8
17 10.07 В 2
{4}
н/о н/о +24.2 +5.1 29 +24 +24 комфорт 1015.6 978.5
18 10.07 ЮВ 1
{5}
н/о н/о +23.7 +6.5 33 +24 +24 комфорт 1015.7 978.5 +24.6
19 10.07 ЮЗ 1
{2}
н/о н/о +20.1 +8.6 47 +22 +22 комфорт 1016.3 978.6
20 10.07 Ю 1
{1}
н/о н/о +16.8 +10.2 65 +18 +18 1017.2 979.1
21 10.07 штиль 0
{2}
н/о н/о +15.0 +10.4 74 +15 +15 1017.8 979.4
22 10.07 штиль 0
{1}
н/о н/о +14.1 +10.7 80 +14 +14 1017.7 979.2
23 10.07 штиль 0
{1}
н/о н/о +13.0 +10.1 83 +13 +13 1017.9 979.2
00 11.07 штиль 0
{2}
н/о н/о +12.6 +10.1 85 +12 +12 1017.6 978.9
01 11.07 штиль 0
{1}
н/о н/о +12.0 +10.2 89 +11 +11 1017.3 978.5
02 11.07 штиль 0
{1}
н/о н/о +11.1 +9.7 91 +10 +10 1016.9 978.0
03 11.07 штиль 0
{1}
н/о н/о +11.4 +9.8 90 +11 +11 1016.7 977.8
04 11.07 штиль 0
{2}
н/о н/о +12.5 +9.6 82 +12 +12 1016.4 977.7
05 11.07 СВ 1
{1}
н/о н/о +13.1 +10.0 81 +14 +14 1016.1 977.5
06 11.07 СВ 1 н/о н/о +14.2 +10.1 76 +15 +15 1016.0 977.6 +11.0
07 11.07 СВ 1
{2}
н/о н/о +15.0 +9.8 71 +16 +16 1016.0 977.7
08 11.07 штиль 0
{1}
н/о н/о +16.6 +10.2 66 +17 +17 1015.7 977.6
09 11.07
{2}
н/о н/о +18.4 +11.0 62 1015.3 977.5
10 11.07 штиль 0
{1}
н/о н/о +19.8 +10.6 55 +21 +21 комфорт 1014.9 977.3
11 11.07 СВ 1
{1}
н/о н/о +20.9 +10.5 51 +24 +24 комфорт 1014.9 977.4
12 11.07 С 1
{2}
н/о н/о +21.5 +10.2 49 +23 +23 комфорт 1014.0 976.6
13 11.07 СЗ 1
{2}
н/о н/о +21.1 +11.5 54 +23 +23 комфорт 1014.5 977.0
14 11.07 ЮЗ 1
{3}
н/о н/о +19.6 +14.0 70 +23 +23 комфорт 1014.9 977.2 0.1
15 11.07 ЮВ 1
{3}
н/о н/о +18.5 +15.4 82 +20 +20 1015.2 977.4 0.1
16 11.07 ЮВ 1
{2}
н/о н/о +18.5 +15.2 81 +21 +21 комфорт 1015.0 977.2
17 11.07 Ю 1
{2}
н/о н/о +19.7 +12.8 64 +22 +22 комфорт 1015.1 977.4
18 11.07 Ю 2
{3}
н/о н/о +19.2 +13.4 69 +21 +21 комфорт 1015.1 977.4 +21.6
19 11.07 Ю 1
{3}
н/о н/о +18.1 +13.7 75 +20 +20 1015.4 977.5
20 11.07 ЮЗ 1
{2}
н/о н/о +16.4 +13.2 81 +17 +17 1015.8 977.7
21 11.07 штиль 0
{3}
н/о н/о +15.7 +14.1 90 +15 +15 1016.1 977.9
22 11.07 штиль 0
{1}
н/о н/о +14.8 +13.7 93 +14 +14 1016.2 977.8
23 11.07 ЮВ 1
{1}
н/о н/о +14.2 +13.4 95 +15 +15 1015.9 977.5
00 12.07 В 1
{3}
н/о н/о +13.8 +13.0 95 +15 +15 1015.7 977.2
01 12.07 штиль 0
{1}
н/о н/о +12.9 +12.4 97 +12 +12 1015.6 977.0
02 12.07 ЮВ 1
{1}
н/о н/о +12.6 +12.1 97 +13 +13 1015.5 976.9
03 12.07 штиль 0
{1}
н/о н/о +13.0 +12.5 97 +12 +12 1015.4 976.8
04 12.07 штиль 0
{1}
н/о н/о +13.4 +12.7 96 +13 +13 1015.2 976.7
05 12.07 С 1
{2}
н/о н/о +14.0 +12.9 93 +14 +14 1015.3 976.9
06 12.07 В 1
{2}
н/о н/о +15.1 +13.6 91 +16 +16 1015.1 976.8 +12.6
07 12.07 СЗ 1
{3}
н/о н/о +15.5 +13.9 90 +16 +16 1015.3 977.1
08 12.07 С 1
{2}
н/о н/о +16.6 +14.3 86 +17 +17 1015.0 976.9
09 12.07 СВ 1
{5}
н/о н/о +18.6 +14.5 77 +20 +20 1014.8 977.0
10 12.07 З 1
{2}
н/о н/о +19.0 +14.6 76 +22 +22 комфорт 1014.9 977.1
11 12.07 С 1
{2}
н/о н/о +21.4 +14.6 65 +24 +24 комфорт 1014.0 976.6
12 12.07 ЮЗ 2
{5}
н/о н/о +23.2 +14.6 58 +27 +27 душно 1012.9 975.8
13 12.07 Ю 2
{5}
н/о н/о +24.1 +15.4 58 +27 +27 жарко 1012.1 975.1
14 12.07 Ю 3
{6}
н/о н/о +25.0 +16.4 59 +28 +28 жарко 1011.2 974.4
15 12.07 З 4
{9}
н/о н/о +26.2 +13.0 44 +28 +28 жарко 1010.7 974.0
16 12.07 З 5
{11}
н/о н/о +25.6 +12.5 44 +27 +27 жарко 1010.6 973.9
17 12.07 З 5
{12}
н/о н/о +25.3 +12.3 44 +27 +27 жарко 1010.5 973.7
18 12.07 З 4
{12}
н/о н/о +24.4 +12.0 46 +26 +26 жарко 1011.3 974.4 +26.4
19 12.07 З 3
{8}
н/о н/о +23.6 +11.1 45 +25 +25 комфорт 1012.0 975.0
20 12.07 З 2
{6}
н/о н/о +22.9 +10.8 46 +25 +25 комфорт 1012.8 975.6
21 12.07 З 2
{8}
н/о н/о +22.0 +10.6 48 +24 +24 комфорт 1013.3 976.0
22 12.07 СЗ 1
{4}
н/о н/о +20.3 +11.6 57 +24 +24 комфорт 1014.2 976.6
23 12.07 СЗ 2
{4}
н/о н/о +17.0 +13.7 81 +18 +18 1015.9 977.8 2
00 13.07 СЗ 2
{8}
н/о н/о +15.8 +14.0 89 +16 +16 1016.6 978.4 0.9
01 13.07 ЮВ 2
{4}
н/о н/о +15.2 +14.0 93 +15 +15 1015.8 977.5 2
02 13.07 З 2
{3}
н/о н/о +14.9 +13.7 93 +15 +15 1016.4 978.0
03 13.07 СЗ 1
{6}
н/о н/о +14.9 +13.2 90 +15 +15 1016.7 978.3
04 13.07 штиль 0
{1}
н/о н/о +13.6 +13.2 97 +13 +13 1017.8 979.2
05 13.07 В 1
{2}
н/о н/о +13.7 +13.4 98 +15 +15 1017.8 979.2
06 13.07 СВ 1
{6}
н/о н/о +15.5 +14.1 91 +17 +17 1018.0 979.7 +13.6
07 13.07 В 1
{2}
н/о н/о +16.8 +13.6 81 +18 +18 1018.3 980.1
08 13.07 З 1
{2}
н/о н/о +18.4 +12.7 69 +20 +20 1018.1 980.1
09 13.07 С 1
{4}
н/о н/о +19.8 +11.5 59 +22 +22 комфорт 1017.9 980.1
10 13.07 З 1
{6}
н/о н/о +20.6 +11.1 54 +24 +24 комфорт 1017.6 980.0
11 13.07 СЗ 2
{5}
н/о н/о +21.6 +10.9 51 +23 +23 комфорт 1017.2 979.7
12 13.07 З 2
{6}
н/о н/о +22.1 +10.5 48 +24 +24 комфорт 1017.0 979.6
13 13.07 СЗ 3
{6}
н/о н/о +22.4 +8.3 40 +24 +24 комфорт 1016.6 979.2
14 13.07 СЗ 2
{6}
н/о н/о +23.2 +9.3 41 +25 +25 комфорт 1016.4 979.1
15 13.07 СЗ 2
{6}
н/о н/о +22.5 +9.3 43 +24 +24 комфорт 1016.2 978.9
16 13.07 СЗ 2
{5}
н/о н/о +22.9 +8.9 41 +24 +24 комфорт 1015.9 978.6
17 13.07 З 2
{5}
н/о н/о +22.6 +9.9 44 +24 +24 комфорт 1015.8 978.5
18 13.07 З 1
{6}
н/о н/о +22.1 +9.6 45 +24 +24 комфорт 1016.1 978.7 +23.3
19 13.07 З 1
{3}
н/о н/о +19.3 +12.7 66 +22 +22 комфорт 1016.7 978.9
20 13.07 штиль 0
{2}
н/о н/о +17.2 +12.3 73 +17 +17 1017.6 979.5
21 13.07 штиль 0
{3}
н/о н/о +15.6 +12.0 79 +15 +15 1018.2 979.9
22 13.07 штиль 0
{2}
н/о н/о +14.2 +12.2 88 +14 +14 1018.4 979.9
23 13.07 штиль 0
{1}
н/о н/о +13.3 +12.1 92 +13 +13 1018.4 979.7
00 14.07 ЮВ 1
{3}
н/о н/о +12.5 +11.5 94 +13 +13 1018.3 979.5
01 14.07 штиль 0
{1}
н/о н/о +12.5 +11.3 92 +12 +12 1017.9 979.2
02 14.07 штиль 0
{1}
н/о н/о +12.6 +11.3 92 +12 +12 1017.5 978.8
03 14.07 штиль 0
{1}
н/о н/о +11.8 +10.9 94 +11 +11 1017.2 978.4
04 14.07 С 1
{2}
н/о н/о +12.3 +10.8 91 +13 +13 1016.9 978.2
05 14.07 С 1
{2}
н/о н/о +12.6 +10.6 88 +13 +13 1016.8 978.1
06 14.07 СВ 1
{2}
н/о н/о +14.1 +11.1 82 +14 +14 1016.4 977.9 +11.7
07 14.07 СВ 1
{2}
н/о н/о +16.5 +11.6 73 +18 +18 1016.1 978.0
08 14.07 СВ 1
{3}
н/о н/о +18.6 +12.2 66 +20 +20 1015.6 977.8
09 14.07 В 3
{5}
н/о н/о +21.3 +12.5 57 +24 +24 комфорт 1014.7 977.3
10 14.07 В 2
{6}
н/о н/о +22.6 +11.4 49 +25 +25 комфорт 1014.3 977.0
11 14.07 СВ 2
{6}
н/о н/о +23.6 +11.4 46 +25 +25 комфорт 1013.6 976.5
12 14.07 СВ 2
{7}
н/о н/о +24.2 +10.6 42 +25 +25 комфорт 1012.7 975.7
13 14.07 В 2
{5}
н/о н/о +23.6 +9.8 42 +25 +25 комфорт 1012.1 975.1
14 14.07 СВ 2
{6}
н/о н/о +25.1 +10.0 39 +26 +26 жарко 1011.6 974.8
15 14.07 С 4
{9}
н/о н/о +21.9 +11.5 52 +24 +24 комфорт 1012.7 975.4
16 14.07 СВ 5
{12}
н/о н/о +20.6 +10.9 54 +22 +22 комфорт 1012.9 975.4
17 14.07 СВ 3
{10}
н/о н/о +19.3 +11.4 60 +21 +21 комфорт 1013.5 975.8
18 14.07 С 2
{12}
н/о н/о +18.7 +11.3 62 +20 +20 1014.3 976.5 +25.3
19 14.07 СЗ 2
{6}
н/о н/о +18.0 +11.1 64 +19 +19 1014.6 976.7
20 14.07 СЗ 2
{5}
н/о н/о +17.6 +11.3 67 +18 +18 1015.0 977.1
21 14.07 СЗ 1
{6}
н/о н/о +15.2 +13.8 91 +16 +16 1015.7 977.4 3
22 14.07 ЮЗ 1
{2}
н/о н/о +14.9 +14.1 95 +16 +16 1016.0 977.7 2
23 14.07 Ю 1
{2}
н/о н/о +14.7 +14.0 96 +16 +16 1016.0 977.6 2
00 15.07 С 1
{6}
н/о н/о +14.6 +14.0 96 +15 +15 1015.5 977.1 0.3
01 15.07 СЗ 1
{2}
н/о н/о +14.6 +13.5 93 +16 +16 1014.8 976.5 0.2
02 15.07 СЗ 1
{2}
н/о н/о +14.1 +13.1 94 +15 +15 1014.8 976.4
03 15.07 С 1
{4}
н/о н/о +14.1 +11.8 86 +15 +15 1014.8 976.4
04 15.07 С 1
{2}
н/о н/о +13.7 +12.8 94 +15 +15 1014.7 976.2
05 15.07 СЗ 1
{2}
н/о н/о +14.3 +12.1 87 +15 +15 1014.8 976.4
06 15.07 С 1
{4}
н/о н/о +14.7 +12.1 84 +15 +15 1015.5 977.1 +13.6
07 15.07 СВ 1
{5}
н/о н/о +15.7 +11.9 78 +17 +17 1015.4 977.2
08 15.07 С 2
{5}
н/о н/о +16.7 +12.3 75 +17 +17 1015.6 977.5
09 15.07 СВ 2
{6}
н/о н/о +18.1 +12.7 71 +19 +19 1015.4 977.5
10 15.07 СВ 2
{5}
н/о н/о +19.0 +12.8 67 +21 +21 комфорт 1015.4 977.6
11 15.07 С 1
{6}
н/о н/о +20.1 +12.7 62 +23 +23 комфорт 1015.0 977.4
12 15.07 СВ 2
{6}
н/о н/о +20.9 +11.9 56 +24 +24 комфорт 1014.5 977.0
13 15.07 С 2
{7}
н/о н/о +22.5 +12.2 52 +25 +25 комфорт 1014.1 976.8
14 15.07 СВ 2
{5}
н/о н/о +22.8 +12.1 51 +25 +25 комфорт 1014.0 976.8
15 15.07 СВ 2
{7}
н/о н/о +23.0 +12.2 51 +26 +26 жарко 1013.8 976.6
16 15.07 СВ 2
{5}
н/о н/о +23.6 +12.4 49 +25 +25 комфорт 1013.7 976.6
17 15.07 СВ 2
{5}
н/о н/о +23.3 +11.9 49 +26 +26 жарко 1013.8 976.7
18 15.07 СВ 2
{7}
н/о н/о +23.3 +11.9 49 +26 +26 жарко 1014.1 976.9 +24.0
19 15.07 СВ 1
{4}
н/о н/о +22.1 +11.8 52 +24 +24 комфорт 1014.6 977.3
20 15.07 З 1
{3}
н/о н/о +19.4 +14.1 71 +22 +22 комфорт 1015.7 978.0
21 15.07 З 1
{4}
н/о н/о +18.1 +13.1 73 +20 +20 1016.3 978.4
22 15.07 СЗ 1
{2}
н/о н/о +16.6 +13.5 82 +18 +18 1017.0 978.8
23 15.07 З 1
{2}
н/о н/о +15.7 +13.2 85 +17 +17 1017.4 979.1
00 16.07 штиль 0
{4}
н/о н/о +14.1 +12.7 91 +14 +14 1017.8 979.3
01 16.07 штиль 0
{1}
н/о н/о +13.8 +12.8 94 +13 +13 1018.0 979.4
02 16.07 штиль 0
{1}
н/о н/о +13.2 +12.5 96 +13 +13 1018.3 979.6
03 16.07 штиль 0
{1}
н/о н/о +12.5 +11.9 96 +12 +12 1018.3 979.5
04 16.07 штиль 0
{1}
н/о н/о +12.4 +12.0 97 +12 +12 1018.3 979.5
05 16.07 СВ 1
{2}
н/о н/о +13.3 +12.0 92 +14 +14 1018.4 979.7
06 16.07 С 1
{2}
н/о н/о +15.0 +12.4 84 +15 +15 1018.3 979.9 +12.3
07 16.07 СВ 1
{2}
н/о н/о +16.9 +12.4 75 +18 +18 1017.9 979.8
08 16.07 С 1
{2}
н/о н/о +19.1 +12.9 67 +22 +22 комфорт 1017.3 979.5
09 16.07 ЮВ 1
{2}
н/о н/о +20.3 +12.9 62 +23 +23 комфорт 1017.0 979.3

 

Местоположение метеостанции Бецнау (Швейцария): широта 47.57 долгота 8.23 высота над уровнем моря 327 м.

В архиве по умолчанию представлена погода на Бецнау за последнюю неделю. Архивные данные за месяц целиком и за предыдущие месяцы, начиная с января 2011 года, Вы можете получить, выбрав интересующий диапазон дат из раскрывающегося списка и нажав кнопку "Ввод!".


*Определитесь, кто Вы:
робот инопланетянин человек

Внимание! Время в таблицах - всемирное. Для получения местного времени необходимо прибавить поправку, которая равна 1 ч.

Смотрите также архив погоды в соседних городах и на ближайших метеорологических станциях:

Погода в Институте Пауля Шеррера (Швейцария) (4 км)
Погода в Лайбштадте (Швейцария) (5 км)
Погода в Бругг-Вилдегге (Швейцария) (12 км)
Погода в Лауфенбурге (Швейцария) (14 км)
Погода на Легерне (Швейцария) (16 км)
Погода в Тразадингене (Швейцария) (19 км)
Погода в Халлау (Швейцария) (23 км)
Погода в Букс-Зуре (Швейцария) (24 км)
Погода в Цюрих аэропорту (Швейцария) (25 км)
Погода в Мёлине (Швейцария) (26 км)

Пояснения к столбцам:

Ветер - указаны скорость ветра в м/с - средняя за 10 мин, порывы в срок и между сроками (в фигурных скобках) и направление, откуда дует ветер: С - северный, СВ - северо-восточный, В - восточный, ЮВ - юго-восточный, Ю - южный, ЮЗ - юго-западный, З - западный, СЗ - северо-западный.
Видимость - горизонтальная дальность видимости в метрах или километрах. При видимости от 1 до 10 км при отсутствии осадков обычно наблюдается дымка, при ухудшении видимости до 1 км и менее - туман. В сухую погоду видимость может ухудшаться дымом, пылью или мглою.
Явления - указаны атмосферные явления, наблюдавшиеся в срок или в последний час перед сроком; фигурными скобками обозначены явления, наблюдавшиеся между сроками (за 1-3 часа до срока); квадратными скобками обозначены град или гололедные отложения с указанием их диаметра в мм.
Облачность - указаны через наклонную черту общая и нижняя облачность в баллах и высота нижней границы облаков в метрах; квадратными скобками обозначены формы облаков: Ci - перистые, Cs - перисто-слоистые, Cc - перисто-кучевые, Ac - высококучевые, As - высокослоистые, Sc - слоисто-кучевые, Ns - слоисто-дождевые, Cu - кучевые, Cb - кучево-дождевые. Подробнее классификацию облаков см. в Атласе облаков (PDF).
T - Температура воздуха - температура, измеренная на высоте 2 м над землей.
Td - Температура точки росы - температура, при понижении до которой содержащийся в воздухе водяной пар достигнет насыщения.
f - Относительная влажность воздуха - влажноcть воздуха, измеренная на высоте 2 м над землей.
Te - Эффективная температура - температура, которую ощущает одетый по сезону человек в тени. Характеристика душности погоды. При расчете учитывается влияние влажности воздуха и скорости ветра на теплоощущения человека.
Tes - Эффективная температура на солнце - температура, которую ощущает человек, с поправкой на солнечный нагрев. Характеристика знойности погоды. Зависит от высоты солнца над горизонтом, облачности и скорости ветра. Ночью, в пасмурную погоду, а также при ветре 12 м/с и более поправка равна нулю.
P - Атмосферное давление - приведенное к уровню моря атмосферное давление.
Po - Атмосферное давление - измеренное на уровне метеостанции атмосферное давление.
Tmin - Минимальная температура - минимум температуры воздуха на высоте 2 м над землей.
Tmax - Максимальная температура - максимум температуры воздуха на высоте 2 м над землей.
R - Количество осадков - Количество выпавших осадков за период времени, мм. При наведении курсора мыши на число - период времени, за который выпало указанное количество осадков.
R24 - Количество осадков - Количество выпавших осадков за 24 часа, мм.
S - Снежный покров - Высота снежного покрова, см. При наведении курсора мыши на число - состояние снежного покрова и степень покрытия местности в баллах.